Location: Asheville, NC
(35.6000°N, 82.5500°W)
Time: 11:43:19
(UTC-04:00)

Vanguard 3 - Pass Details

Date: 10 February 2018
Orbit: 507 x 3264 km, 33.4° (Epoch: 23 May)

Event Time Altitude Azimuth Distance (km) Brightness Sun altitude
Rises 22:58:55 0° 276° (W) 3,428 - -58.0°
Reaches altitude 10° 23:01:00 10° 271° (W) 2,719 - -58.3°
Maximum altitude 23:07:30 56° 195° (SSW) 1,625 - -59.4°
Drops below altitude 10° 23:19:09 10° 122° (ESE) 4,734 - -61.2°
Sets 23:23:59 0° 119° (ESE) 6,175 - -61.9°
